カタログに戻る

STARLINK-30394

運用中通信VLEO
NORAD 57810·PAYLOAD·🇺🇸 United States

打ち上げ Sep 9, 2023 から Cape Canaveral Space Force Station

Loading…

次のパス (今後24時間)

TLE

最新Source: CelesTrak SupGP

元期: Sep 15, 2026, 03:15 UTC

1 57810C 23138C   26258.13590278 -.00032746  00000+0 -11859-2 0  2583
2 57810  43.0021 244.2055 0001269 267.7705  58.4827 15.27598612    18

AllMySatでSTARLINK-30394をリアルタイム追跡

Download on the App Store